Terminal Aerodrome Forecast
Issued by NWS Pocatello, ID

Home | Current Version | Previous Version | Text Only | Print | Product List | Glossary On
Versions: 1 2 3 4 5 6 7 8 9 10 11 12 13 14 15
000
FTUS45 KPIH 012300
TAFBYI
TAF
KBYI 012320Z 0200/0224 26011KT P6SM SKC
     FM020300 22008KT P6SM SKC
     FM021800 26010G20KT P6SM SCT100 SCT200=

USA.gov is the U.S. government's official web portal to all federal, state and local government web resources and services.